This is the latest recevied weather packets stored in our database for station/object KB1ZFK. If no packets are shown the sender has not sent any weather packets the latest 10 day(s).
| Time | Temp. | Humidity | Pressure | Rain* | Wind** | Luminosity | Snow |
|---|---|---|---|---|---|---|---|
| 1777900959 | 13.89° C | 52% | 1008.8 hPa | 0 mm | - | 209 W/m² | - |
| 1777900657 | 13.33° C | 51% | 1008.8 hPa | 0 mm | - | 483 W/m² | - |
| 1777900354 | 12.22° C | 54% | 1009 hPa | 0 mm | - | 304 W/m² | - |
| 1777900051 | 12.22° C | 54% | 1008.8 hPa | 0 mm | - | 147 W/m² | - |
| 1777899747 | 12.78° C | 51% | 1008.9 hPa | 0 mm | - | 145 W/m² | - |
| 1777899444 | 13.33° C | 51% | 1008.9 hPa | 0 mm | - | 226 W/m² | - |
| 1777899142 | 13.33° C | 51% | 1008.9 hPa | 0 mm | - | 464 W/m² | - |
| 1777898839 | 12.78° C | 52% | 1008.9 hPa | 0 mm | - | 408 W/m² | - |
| 1777898537 | 12.22° C | 51% | 1009 hPa | 0 mm | - | 368 W/m² | - |
| 1777898234 | 12.22° C | 52% | 1009.1 hPa | 0 mm | - | 343 W/m² | - |
| 1777897931 | 11.67° C | 54% | 1009.1 hPa | 0 mm | - | 308 W/m² | - |
| 1777897627 | 11.67° C | 53% | 1009.3 hPa | 0 mm | - | 279 W/m² | - |
| 1777897323 | 11.67° C | 54% | 1009.2 hPa | 0 mm | - | 264 W/m² | - |
| 1777897019 | 11.11° C | 55% | 1009.3 hPa | 0 mm | - | 253 W/m² | - |
| 1777896716 | 11.11° C | 55% | 1009.2 hPa | 0 mm | - | 241 W/m² | - |
| 1777896413 | 10.56° C | 59% | 1009.3 hPa | 0 mm | - | 129 W/m² | - |
| 1777896111 | 10° C | 58% | 1009.2 hPa | 0 mm | - | 98 W/m² | - |
| 1777895809 | 10° C | 60% | 1009.2 hPa | 0 mm | - | 62 W/m² | - |
| 1777895505 | 9.44° C | 60% | 1009.3 hPa | 0 mm | - | 57 W/m² | - |
| 1777895203 | 9.44° C | 62% | 1009.4 hPa | 0 mm | - | 57 W/m² | - |
| 1777894901 | 8.89° C | 63% | 1009.3 hPa | 0 mm | - | 55 W/m² | - |
| 1777894598 | 8.89° C | 64% | 1009.4 hPa | 0 mm | - | 50 W/m² | - |
| 1777894295 | 8.33° C | 64% | 1009.3 hPa | 0 mm | - | 50 W/m² | - |
| 1777893992 | 8.33° C | 65% | 1009.4 hPa | 0 mm | - | 45 W/m² | - |
| 1777893688 | 8.33° C | 66% | 1009.4 hPa | 0 mm | - | 47 W/m² | - |
* Rain latest hour (hover to see other rain measurements)
** Current wind speed in m/s (hover to see current wind gust speed)